DLH595 DNAA-EDDF

Flight info

Callsign DLH595
Flight time N/A
Altitude 39000
Route OXORU1S OXORU DCT MIMBA/N0458F380 UA604 AS UR978 EDAGO/N0457F400 UR978 CSO UA605 CIRTA DCT ERETI DCT OMARD DCT NOSTA DCT NOPMU DCT ABESI DCT LADOL T163 EMPAX EMPAX5B
Aircraft A343/H-SDE2E3FGHIJ3J5M1P2RWXYZ/LB1D1

Departure

Time 2026-05-04 05:59
Airport Nnamdi Azikiwe International Airport (DNAA)

Arrival

Time N/A
Airport Frankfurt Main Airport (EDDF)
Time Latitude Longitude Altitude Speed Heading
2026-05-04 05:24 9.00576 7.26755 1135 ft 0 kts
2026-05-04 05:48 9.00572 7.26754 1130 ft 3 kts 360°
2026-05-04 05:48 9.00545 7.26756 1135 ft 4 kts 352°
2026-05-04 05:48 9.00519 7.26761 1131 ft 4 kts 342°
2026-05-04 05:49 9.00495 7.26772 1134 ft 4 kts 317°
2026-05-04 05:49 9.00484 7.26790 1130 ft 2 kts 252°
2026-05-04 05:49 9.00486 7.26796 1135 ft 0 kts 250°
2026-05-04 05:52 9.00486 7.26795 1135 ft 0 kts 250°
2026-05-04 05:52 9.00480 7.26778 1134 ft 6 kts 250°
2026-05-04 05:52 9.00454 7.26719 1135 ft 11 kts 246°
2026-05-04 05:53 9.00460 7.26644 1117 ft 12 kts 306°
2026-05-04 05:54 9.01021 7.26760 1117 ft 19 kts 34°
2026-05-04 05:55 9.01123 7.26835 1119 ft 17 kts 37°
2026-05-04 05:55 9.01215 7.26900 1140 ft 16 kts 34°
2026-05-04 05:55 9.01305 7.26963 1135 ft 16 kts 35°
2026-05-04 05:55 9.01397 7.27029 1135 ft 16 kts 35°
2026-05-04 05:56 9.01486 7.27093 1137 ft 16 kts 35°
2026-05-04 05:56 9.01578 7.27157 1136 ft 17 kts 34°
2026-05-04 05:56 9.01675 7.27225 1135 ft 17 kts 34°
2026-05-04 05:56 9.01770 7.27292 1134 ft 16 kts 34°
2026-05-04 05:57 9.01857 7.27354 1136 ft 14 kts 33°
2026-05-04 05:57 9.01928 7.27351 1140 ft 10 kts 326°
2026-05-04 05:57 9.01968 7.27301 1141 ft 9 kts 307°
2026-05-04 05:57 9.01988 7.27249 1141 ft 7 kts 250°
2026-05-04 05:58 9.01957 7.27219 1135 ft 3 kts 213°
2026-05-04 05:58 9.01956 7.27218 1135 ft 0 kts 213°
2026-05-04 05:58 9.01944 7.27210 1135 ft 11 kts 213°
2026-05-04 05:58 9.01710 7.27046 1136 ft 71 kts 216°
2026-05-04 05:59 9.01153 7.26650 1115 ft 123 kts 215°
2026-05-04 05:59 9.00323 7.26066 1114 ft 165 kts 214°
2026-05-04 05:59 8.99344 7.25387 1555 ft 172 kts 215°
2026-05-04 05:59 8.98338 7.24721 2155 ft 173 kts 214°
2026-05-04 06:00 8.97509 7.23821 2653 ft 181 kts 247°
2026-05-04 06:00 8.97540 7.22555 3150 ft 192 kts 290°
2026-05-04 06:00 8.98405 7.21476 3620 ft 209 kts 324°
2026-05-04 06:00 8.99769 7.20890 4193 ft 218 kts 343°
2026-05-04 06:01 9.01215 7.20402 4855 ft 220 kts 338°
2026-05-04 06:01 9.02666 7.19837 5398 ft 228 kts 335°
2026-05-04 06:03 9.13767 7.13868 9705 ft 282 kts 351°
2026-05-04 06:03 9.15723 7.13907 10463 ft 283 kts 10°
2026-05-04 06:05 9.30382 7.18440 14024 ft 350 kts 20°
2026-05-04 06:05 9.35063 7.19988 15167 ft 359 kts 20°
2026-05-04 06:05 9.37459 7.20782 15756 ft 363 kts 20°
2026-05-04 06:06 9.39866 7.21580 16379 ft 366 kts 20°
2026-05-04 06:06 9.42294 7.22385 16940 ft 370 kts 20°
2026-05-04 06:06 9.44749 7.23200 17521 ft 374 kts 19°
2026-05-04 06:06 9.47234 7.24025 18099 ft 377 kts 19°
2026-05-04 06:07 9.49747 7.24860 18614 ft 382 kts 19°
2026-05-04 06:07 9.52285 7.25702 19114 ft 387 kts 19°
2026-05-04 06:07 9.54856 7.26555 19617 ft 391 kts 19°
2026-05-04 06:07 9.57457 7.27418 20093 ft 395 kts 19°
2026-05-04 06:08 9.60076 7.28288 20571 ft 400 kts 19°
2026-05-04 06:08 9.62743 7.29174 21010 ft 404 kts 19°
2026-05-04 06:08 9.65429 7.30066 21454 ft 409 kts 19°
2026-05-04 06:08 9.68147 7.30969 21899 ft 413 kts 19°
2026-05-04 06:09 9.70888 7.31881 22312 ft 417 kts 18°
2026-05-04 06:09 9.73663 7.32803 22715 ft 422 kts 18°
2026-05-04 06:11 9.93773 7.39402 25499 ft 444 kts 17°
2026-05-04 06:11 9.96743 7.40320 25881 ft 447 kts 17°
2026-05-04 06:13 10.17919 7.46944 28412 ft 463 kts 16°
2026-05-04 06:14 10.36604 7.52820 30212 ft 474 kts 15°
2026-05-04 06:14 10.39766 7.53816 30493 ft 476 kts 15°
2026-05-04 06:15 10.42936 7.54814 30768 ft 478 kts 15°
2026-05-04 06:15 10.46120 7.55818 31028 ft 480 kts 15°
2026-05-04 06:15 10.49306 7.56821 31283 ft 481 kts 15°
2026-05-04 06:15 10.52515 7.57832 31521 ft 483 kts 15°
2026-05-04 06:16 10.54646 7.58503 31663 ft 484 kts 15°
2026-05-04 06:16 10.58941 7.59860 32137 ft 483 kts 15°
2026-05-04 06:16 10.62100 7.60859 32452 ft 482 kts 15°
2026-05-04 06:16 10.65304 7.61870 32773 ft 481 kts 15°
2026-05-04 06:17 10.68496 7.62877 33082 ft 480 kts 15°
2026-05-04 06:17 10.70649 7.63557 33290 ft 480 kts 15°
2026-05-04 06:17 10.73832 7.64562 33571 ft 479 kts 14°
2026-05-04 06:17 10.78046 7.65896 33968 ft 478 kts 14°
2026-05-04 06:18 10.80193 7.66574 34157 ft 478 kts 14°
2026-05-04 06:18 10.83365 7.67576 34433 ft 477 kts 14°
2026-05-04 06:18 10.86532 7.68577 34676 ft 478 kts 14°
2026-05-04 06:20 11.08760 7.75603 36191 ft 477 kts 14°
2026-05-04 06:20 11.11926 7.76604 36381 ft 478 kts 14°
2026-05-04 06:21 11.24606 7.80621 37233 ft 475 kts 14°
2026-05-04 06:21 11.27707 7.81605 37485 ft 473 kts 14°
2026-05-04 06:22 11.30888 7.82614 37711 ft 471 kts 14°
2026-05-04 06:22 11.34017 7.83605 37897 ft 471 kts 14°
2026-05-04 06:25 11.74674 7.96513 38952 ft 471 kts 14°
2026-05-04 06:26 11.80937 7.98506 38952 ft 471 kts 14°
2026-05-04 06:26 11.87187 8.00496 38953 ft 471 kts 14°
2026-05-04 06:27 12.02825 8.05478 38952 ft 471 kts 14°
2026-05-04 06:28 12.09082 8.07474 38952 ft 471 kts 14°
2026-05-04 06:28 12.15336 8.09470 38952 ft 471 kts 14°
2026-05-04 06:29 12.21599 8.11469 38952 ft 471 kts 14°
2026-05-04 06:29 12.27856 8.13465 38952 ft 471 kts 14°
2026-05-04 06:30 12.34111 8.15464 38954 ft 471 kts 14°
2026-05-04 06:30 12.40366 8.17463 38954 ft 471 kts 14°
2026-05-04 06:31 12.46624 8.19463 38952 ft 471 kts 14°
2026-05-04 06:31 12.52894 8.21470 38951 ft 471 kts 14°
2026-05-04 06:33 12.77953 8.29495 38953 ft 472 kts 14°
2026-05-04 06:34 12.84221 8.31504 38952 ft 472 kts 14°
2026-05-04 06:34 12.90492 8.33515 38955 ft 473 kts 14°
2026-05-04 06:36 13.15892 8.38605 38943 ft 463 kts 352°
2026-05-04 06:37 13.22260 8.38015 38944 ft 463 kts 351°
2026-05-04 06:37 13.28662 8.37374 38943 ft 463 kts 351°
2026-05-04 06:38 13.35085 8.36753 38946 ft 463 kts 351°
2026-05-04 06:40 13.60806 8.34348 38940 ft 464 kts 351°
2026-05-04 06:40 13.67242 8.33743 38942 ft 465 kts 351°
2026-05-04 06:41 13.73679 8.33138 38944 ft 465 kts 351°
2026-05-04 06:41 13.80122 8.32536 38944 ft 465 kts 351°
2026-05-04 06:42 13.86567 8.31932 38941 ft 465 kts 351°
2026-05-04 06:44 14.12355 8.29499 38941 ft 465 kts 351°
2026-05-04 06:44 14.18794 8.28890 38945 ft 465 kts 351°
2026-05-04 06:45 14.25242 8.28281 38944 ft 465 kts 351°
2026-05-04 06:45 14.31686 8.27674 38942 ft 466 kts 351°
2026-05-04 06:46 14.38137 8.27066 38944 ft 465 kts 351°
2026-05-04 06:46 14.44578 8.26456 38947 ft 465 kts 351°
2026-05-04 06:48 14.70318 8.24019 38946 ft 465 kts 350°
2026-05-04 06:50 14.96081 8.21575 38952 ft 465 kts 350°
2026-05-04 06:51 15.02514 8.20957 38953 ft 464 kts 350°
2026-05-04 06:51 15.08943 8.20348 38954 ft 464 kts 350°
2026-05-04 06:52 15.15381 8.19740 38944 ft 464 kts 349°
2026-05-04 06:52 15.21812 8.19132 38945 ft 465 kts 350°
2026-05-04 06:53 15.28255 8.18522 38944 ft 465 kts 349°
2026-05-04 06:53 15.34681 8.17911 38945 ft 464 kts 349°
2026-05-04 06:54 15.41118 8.17300 38942 ft 464 kts 349°
2026-05-04 06:54 15.47550 8.16686 38946 ft 464 kts 349°
2026-05-04 06:55 15.53979 8.16076 38942 ft 464 kts 349°
2026-05-04 06:55 15.60413 8.15466 38941 ft 464 kts 349°
2026-05-04 06:57 15.86128 8.13015 38945 ft 464 kts 349°
2026-05-04 06:58 15.92557 8.12401 38945 ft 464 kts 349°
2026-05-04 06:58 15.98986 8.11783 38943 ft 464 kts 349°
2026-05-04 06:59 16.05420 8.11168 38944 ft 464 kts 349°
2026-05-04 06:59 16.11859 8.10555 38944 ft 465 kts 349°
2026-05-04 07:01 16.37549 8.08095 38947 ft 464 kts 349°
2026-05-04 07:02 16.42934 8.07579 38943 ft 464 kts 349°
2026-05-04 07:02 16.49369 8.06959 38944 ft 464 kts 349°
2026-05-04 07:03 16.55798 8.06340 38947 ft 464 kts 349°
2026-05-04 07:03 16.62230 8.05721 38943 ft 464 kts 349°
2026-05-04 07:04 16.68657 8.05102 38943 ft 464 kts 349°
2026-05-04 07:04 16.75092 8.04483 38945 ft 464 kts 349°
2026-05-04 07:05 16.81522 8.03863 38936 ft 464 kts 349°
2026-05-04 07:05 16.87956 8.03245 38937 ft 464 kts 349°
2026-05-04 07:06 16.97612 8.02313 38936 ft 464 kts 349°
2026-05-04 07:07 17.04022 8.01755 38933 ft 465 kts 349°
2026-05-04 07:09 17.29838 7.99723 38945 ft 465 kts 349°
2026-05-04 07:09 17.36285 7.99201 38941 ft 466 kts 349°
2026-05-04 07:10 17.42754 7.98679 38941 ft 466 kts 349°
2026-05-04 07:12 17.68600 7.96590 38944 ft 466 kts 349°
2026-05-04 07:12 17.75065 7.96069 38946 ft 466 kts 349°
2026-05-04 07:13 17.81536 7.95545 38944 ft 466 kts 349°
2026-05-04 07:13 17.87993 7.95018 38947 ft 466 kts 349°
2026-05-04 07:14 18.04118 7.93710 38952 ft 466 kts 349°
2026-05-04 07:15 18.10590 7.93183 38952 ft 466 kts 349°
2026-05-04 07:15 18.17053 7.92659 38951 ft 466 kts 349°
2026-05-04 07:16 18.23519 7.92133 38953 ft 466 kts 349°
2026-05-04 07:16 18.29991 7.91606 38962 ft 466 kts 349°
2026-05-04 07:17 18.36459 7.91078 38961 ft 466 kts 349°
2026-05-04 07:17 18.42927 7.90549 38963 ft 466 kts 349°
2026-05-04 07:18 18.49383 7.90022 38963 ft 465 kts 349°
2026-05-04 07:18 18.55841 7.89494 38970 ft 465 kts 349°
2026-05-04 07:19 18.62290 7.88967 38970 ft 465 kts 348°
2026-05-04 07:19 18.68709 7.88441 38971 ft 464 kts 348°
2026-05-04 07:20 18.75150 7.87913 38981 ft 464 kts 348°
2026-05-04 07:20 18.81590 7.87385 38979 ft 464 kts 348°
2026-05-04 07:22 19.07286 7.85273 39013 ft 462 kts 348°
2026-05-04 07:23 19.13691 7.84746 39015 ft 462 kts 348°
2026-05-04 07:23 19.20092 7.84220 39007 ft 461 kts 347°
2026-05-04 07:24 19.26443 7.83697 39027 ft 460 kts 347°
2026-05-04 07:24 19.32837 7.83170 39027 ft 460 kts 347°
2026-05-04 07:26 19.58286 7.81087 39576 ft 457 kts 347°
2026-05-04 07:27 19.61456 7.80837 39685 ft 457 kts 347°
2026-05-04 07:27 19.64631 7.80586 39846 ft 457 kts 347°
2026-05-04 07:27 19.67799 7.80335 39960 ft 457 kts 347°
2026-05-04 07:27 19.70975 7.80084 40034 ft 458 kts 347°
2026-05-04 07:28 19.77374 7.79570 40056 ft 464 kts 347°
2026-05-04 07:28 19.83801 7.79060 40052 ft 462 kts 347°
2026-05-04 07:29 19.90202 7.78553 40049 ft 461 kts 347°
2026-05-04 07:29 19.96599 7.78043 40053 ft 461 kts 347°
2026-05-04 07:30 20.02954 7.77535 40063 ft 461 kts 347°
2026-05-04 07:30 20.09344 7.77024 40063 ft 461 kts 347°
2026-05-04 07:31 20.15744 7.76512 40057 ft 461 kts 347°
2026-05-04 07:33 20.41323 7.74461 40082 ft 461 kts 347°
2026-05-04 07:33 20.47717 7.73948 40083 ft 461 kts 347°
2026-05-04 07:34 20.54114 7.73433 40083 ft 461 kts 347°
2026-05-04 07:34 20.60504 7.72919 40091 ft 461 kts 347°
2026-05-04 07:35 20.66907 7.72403 40092 ft 462 kts 347°
2026-05-04 07:35 20.73316 7.71886 40091 ft 462 kts 347°
2026-05-04 07:36 20.79739 7.71369 40100 ft 462 kts 347°
2026-05-04 07:38 21.05305 7.68933 40109 ft 458 kts 343°
2026-05-04 07:38 21.11571 7.67969 40110 ft 458 kts 344°
2026-05-04 07:39 21.17932 7.67033 40110 ft 459 kts 344°
2026-05-04 07:39 21.24220 7.66144 40116 ft 459 kts 345°
2026-05-04 07:40 21.30551 7.65260 40119 ft 459 kts 345°
2026-05-04 07:40 21.36886 7.64375 40120 ft 459 kts 345°
2026-05-04 07:41 21.43214 7.63488 40118 ft 459 kts 345°
2026-05-04 07:41 21.49543 7.62599 40120 ft 459 kts 345°
2026-05-04 07:42 21.55863 7.61712 40119 ft 456 kts 345°
2026-05-04 07:42 21.62149 7.60828 40118 ft 455 kts 345°
2026-05-04 07:43 21.68425 7.59943 40130 ft 455 kts 345°
2026-05-04 07:43 21.74709 7.59056 40127 ft 455 kts 345°
2026-05-04 07:44 21.80988 7.58170 40133 ft 455 kts 345°
2026-05-04 07:44 21.87274 7.57282 40127 ft 455 kts 345°
2026-05-04 07:45 21.93550 7.56395 40126 ft 455 kts 345°
2026-05-04 07:45 21.99831 7.55507 40124 ft 455 kts 345°
2026-05-04 07:46 22.06117 7.54617 40131 ft 455 kts 345°
2026-05-04 07:46 22.12386 7.53729 40137 ft 454 kts 345°
2026-05-04 07:47 22.18648 7.52841 40138 ft 454 kts 345°
2026-05-04 07:49 22.42645 7.49429 40137 ft 453 kts 345°
2026-05-04 07:49 22.48894 7.48539 40137 ft 453 kts 345°
2026-05-04 07:50 22.55141 7.47648 40137 ft 452 kts 345°
2026-05-04 07:50 22.61379 7.46758 40137 ft 452 kts 345°
2026-05-04 07:51 22.67605 7.45868 40137 ft 451 kts 345°
2026-05-04 07:51 22.73832 7.44979 40137 ft 451 kts 345°
2026-05-04 07:52 22.80039 7.44090 40139 ft 450 kts 345°
2026-05-04 07:52 22.86247 7.43201 40147 ft 449 kts 345°
2026-05-04 07:54 23.10957 7.39653 40146 ft 448 kts 345°
2026-05-04 07:55 23.17134 7.38764 40147 ft 448 kts 345°
2026-05-04 07:55 23.23296 7.37877 40147 ft 447 kts 345°
2026-05-04 07:56 23.29459 7.36988 40147 ft 446 kts 345°
2026-05-04 07:56 23.35606 7.36101 40148 ft 446 kts 345°
2026-05-04 07:57 23.41752 7.35213 40147 ft 445 kts 345°
2026-05-04 07:57 23.47894 7.34324 40146 ft 445 kts 345°
2026-05-04 07:58 23.54044 7.33469 40140 ft 447 kts 346°
2026-05-04 07:58 23.60241 7.32826 40136 ft 447 kts 347°
2026-05-04 07:59 23.66434 7.32228 40138 ft 447 kts 347°
2026-05-04 07:59 23.72621 7.31598 40137 ft 446 kts 347°
2026-05-04 08:00 23.78801 7.30948 40138 ft 446 kts 347°
2026-05-04 08:02 24.03461 7.28331 40138 ft 445 kts 347°
2026-05-04 08:02 24.09610 7.27679 40137 ft 443 kts 347°
2026-05-04 08:03 24.15750 7.27025 40137 ft 443 kts 347°
2026-05-04 08:03 24.21883 7.26372 40137 ft 443 kts 347°
2026-05-04 08:04 24.28022 7.25718 40137 ft 443 kts 347°
2026-05-04 08:04 24.34113 7.25069 40131 ft 443 kts 347°
2026-05-04 08:05 24.40246 7.24414 40109 ft 443 kts 347°
2026-05-04 08:05 24.46375 7.23759 40107 ft 443 kts 347°
2026-05-04 08:06 24.52507 7.23103 40100 ft 442 kts 347°
2026-05-04 08:06 24.58635 7.22446 40099 ft 442 kts 347°
2026-05-04 08:08 24.83148 7.19816 40092 ft 442 kts 347°
2026-05-04 08:11 25.10678 7.16856 40082 ft 441 kts 347°
2026-05-04 08:11 25.19842 7.15866 40081 ft 442 kts 347°
2026-05-04 08:12 25.25963 7.15206 40075 ft 442 kts 347°
2026-05-04 08:12 25.32089 7.14545 40066 ft 442 kts 347°
2026-05-04 08:13 25.38209 7.13884 40076 ft 442 kts 347°
2026-05-04 08:13 25.44330 7.13222 40056 ft 442 kts 347°
2026-05-04 08:14 25.50444 7.12560 40070 ft 442 kts 347°
2026-05-04 08:16 25.74850 7.09911 40062 ft 441 kts 347°
2026-05-04 08:16 25.80957 7.09246 40051 ft 441 kts 347°
2026-05-04 08:17 25.87061 7.08580 40050 ft 441 kts 347°
2026-05-04 08:17 25.93161 7.07916 40060 ft 440 kts 347°
2026-05-04 08:19 26.17549 7.05288 40051 ft 440 kts 347°
2026-05-04 08:20 26.23647 7.04633 40042 ft 440 kts 347°
2026-05-04 08:20 26.29744 7.03978 40049 ft 440 kts 347°
2026-05-04 08:21 26.35843 7.03322 40046 ft 440 kts 347°
2026-05-04 08:21 26.41938 7.02666 40050 ft 440 kts 347°
2026-05-04 08:22 26.48022 7.02012 40043 ft 439 kts 347°
2026-05-04 08:24 26.72346 6.99382 40046 ft 438 kts 347°
2026-05-04 08:24 26.78421 6.98724 40051 ft 439 kts 347°
2026-05-04 08:25 26.84504 6.98064 40043 ft 439 kts 347°
2026-05-04 08:25 26.90587 6.97407 40042 ft 439 kts 347°
2026-05-04 08:27 27.14922 6.94753 40042 ft 439 kts 347°
2026-05-04 08:28 27.21001 6.94089 40049 ft 439 kts 347°
2026-05-04 08:28 27.27044 6.93429 40054 ft 439 kts 347°
2026-05-04 08:29 27.33129 6.92763 40054 ft 439 kts 347°
2026-05-04 08:31 27.57431 6.90096 40041 ft 438 kts 347°
2026-05-04 08:33 27.80737 6.87527 40053 ft 439 kts 347°
2026-05-04 08:35 28.04995 6.84842 40061 ft 439 kts 347°
2026-05-04 08:35 28.11063 6.84168 40054 ft 439 kts 347°
2026-05-04 08:37 28.32629 6.83712 40037 ft 443 kts 352°
2026-05-04 08:38 28.38798 6.83654 40052 ft 443 kts 352°
2026-05-04 08:38 28.44964 6.83591 40051 ft 443 kts 352°
2026-05-04 08:40 28.69695 6.83333 40045 ft 444 kts 352°
2026-05-04 08:41 28.75878 6.83268 40041 ft 444 kts 352°
2026-05-04 08:41 28.82058 6.83203 40047 ft 444 kts 352°
2026-05-04 08:42 28.88250 6.83139 40058 ft 444 kts 352°
2026-05-04 08:42 28.94440 6.83075 40053 ft 445 kts 352°
2026-05-04 08:43 29.00627 6.83010 40077 ft 444 kts 352°
2026-05-04 08:43 29.06774 6.82945 40091 ft 444 kts 352°
2026-05-04 08:44 29.12967 6.82880 40092 ft 445 kts 352°
2026-05-04 08:46 29.37772 6.82618 40091 ft 446 kts 352°
2026-05-04 08:46 29.43977 6.82553 40092 ft 446 kts 352°
2026-05-04 08:47 29.50196 6.82487 40091 ft 446 kts 352°
2026-05-04 08:47 29.56403 6.82422 40090 ft 446 kts 353°
2026-05-04 08:48 29.62608 6.82357 40091 ft 446 kts 353°
2026-05-04 08:48 29.68772 6.82291 40081 ft 446 kts 352°
2026-05-04 08:49 29.74993 6.82225 40083 ft 446 kts 352°
2026-05-04 08:50 29.96750 6.81992 40082 ft 446 kts 352°
2026-05-04 08:51 30.02969 6.81926 40082 ft 447 kts 353°
2026-05-04 08:51 30.09154 6.81859 40082 ft 447 kts 353°
2026-05-04 08:52 30.15384 6.81793 40082 ft 447 kts 353°
2026-05-04 08:52 30.21607 6.81726 40082 ft 447 kts 353°
2026-05-04 08:54 30.46501 6.81458 40082 ft 447 kts 353°
2026-05-04 08:55 30.52680 6.81391 40081 ft 447 kts 353°
2026-05-04 08:55 30.58900 6.81324 40081 ft 447 kts 353°
2026-05-04 09:01 31.24192 6.80613 40081 ft 447 kts 353°
2026-05-04 09:01 31.30405 6.80545 40082 ft 447 kts 353°
2026-05-04 09:02 31.36618 6.80476 40081 ft 447 kts 353°
2026-05-04 09:02 31.42846 6.80407 40083 ft 448 kts 353°
2026-05-04 09:03 31.49079 6.80339 40082 ft 447 kts 353°
2026-05-04 09:03 31.55259 6.80271 40081 ft 447 kts 353°
2026-05-04 09:04 31.61484 6.80202 40082 ft 447 kts 353°
2026-05-04 09:04 31.67721 6.80133 40082 ft 448 kts 353°
2026-05-04 09:05 31.73959 6.80063 40083 ft 448 kts 353°
2026-05-04 09:05 31.80189 6.79995 40082 ft 448 kts 353°
2026-05-04 09:06 31.86423 6.79926 40082 ft 448 kts 353°
2026-05-04 09:08 32.11319 6.79648 40082 ft 448 kts 353°
2026-05-04 09:08 32.17552 6.79578 40091 ft 448 kts 353°
2026-05-04 09:09 32.23784 6.79509 40091 ft 448 kts 353°
2026-05-04 09:09 32.29976 6.79439 40091 ft 448 kts 353°
2026-05-04 09:10 32.36244 6.79369 40091 ft 448 kts 353°
2026-05-04 09:10 32.42441 6.79299 40099 ft 448 kts 353°
2026-05-04 09:11 32.48667 6.79229 40100 ft 448 kts 353°
2026-05-04 09:11 32.54895 6.79159 40101 ft 448 kts 353°
2026-05-04 09:12 32.61135 6.79088 40100 ft 448 kts 353°
2026-05-04 09:14 32.86052 6.78806 40100 ft 447 kts 353°
2026-05-04 09:14 32.92282 6.78735 40100 ft 447 kts 353°
2026-05-04 09:15 32.98462 6.78664 40101 ft 447 kts 353°
2026-05-04 09:15 33.04701 6.78593 40100 ft 447 kts 353°
2026-05-04 09:17 33.32731 6.78273 40119 ft 447 kts 353°
2026-05-04 09:18 33.38918 6.78202 40119 ft 447 kts 353°
2026-05-04 09:18 33.45142 6.78130 40119 ft 447 kts 353°
2026-05-04 09:19 33.51375 6.78058 40119 ft 447 kts 353°
2026-05-04 09:19 33.57582 6.77792 40127 ft 446 kts 350°
2026-05-04 09:20 33.63772 6.77349 40130 ft 446 kts 350°
2026-05-04 09:20 33.69971 6.76923 40131 ft 446 kts 350°
2026-05-04 09:21 33.76172 6.76533 40133 ft 446 kts 351°
2026-05-04 09:21 33.82374 6.76156 40134 ft 446 kts 351°
2026-05-04 09:22 33.87529 6.75844 40129 ft 446 kts 351°
2026-05-04 09:22 33.93725 6.75467 40127 ft 446 kts 351°
2026-05-04 09:23 34.00943 6.75026 40137 ft 446 kts 351°
2026-05-04 09:23 34.06134 6.74708 40137 ft 446 kts 350°
2026-05-04 09:25 34.30919 6.73184 40137 ft 446 kts 350°
2026-05-04 09:26 34.37083 6.72803 40137 ft 446 kts 350°
2026-05-04 09:26 34.43317 6.72418 40137 ft 446 kts 350°
2026-05-04 09:27 34.49522 6.72034 40137 ft 446 kts 350°
2026-05-04 09:27 34.55685 6.71652 40137 ft 446 kts 350°
2026-05-04 09:28 34.61926 6.71265 40137 ft 446 kts 350°
2026-05-04 09:28 34.68131 6.70879 40137 ft 446 kts 350°
2026-05-04 09:29 34.74329 6.70493 40156 ft 446 kts 350°
2026-05-04 09:29 34.80494 6.70109 40164 ft 446 kts 350°
2026-05-04 09:30 34.86705 6.69731 40155 ft 447 kts 350°
2026-05-04 09:30 34.92916 6.69349 40156 ft 447 kts 350°
2026-05-04 09:31 34.99129 6.68967 40160 ft 447 kts 350°
2026-05-04 09:31 35.05345 6.68584 40166 ft 447 kts 350°
2026-05-04 09:32 35.11553 6.68201 40168 ft 447 kts 350°
2026-05-04 09:34 35.36386 6.66667 40178 ft 447 kts 350°
2026-05-04 09:34 35.42608 6.66280 40172 ft 447 kts 350°
2026-05-04 09:35 35.48823 6.65894 40174 ft 447 kts 350°
2026-05-04 09:35 35.55038 6.65506 40174 ft 448 kts 350°
2026-05-04 09:37 35.79939 6.63950 40165 ft 448 kts 350°
2026-05-04 09:38 35.86175 6.63558 40166 ft 448 kts 350°
2026-05-04 09:38 35.92405 6.63165 40165 ft 449 kts 350°
2026-05-04 09:39 35.98642 6.62774 40160 ft 449 kts 350°
2026-05-04 09:39 36.04875 6.62381 40156 ft 448 kts 349°
2026-05-04 09:40 36.11101 6.61988 40156 ft 448 kts 349°
2026-05-04 09:40 36.17343 6.61593 40155 ft 448 kts 349°
2026-05-04 09:42 36.42451 6.62779 40176 ft 459 kts 360°
2026-05-04 09:43 36.48781 6.63769 40174 ft 459 kts 360°
2026-05-04 09:43 36.55112 6.64747 40164 ft 458 kts 360°
2026-05-04 09:44 36.61431 6.65714 40152 ft 457 kts 360°
2026-05-04 09:46 36.86666 6.69574 40146 ft 457 kts 360°
2026-05-04 09:46 36.92989 6.70550 40139 ft 457 kts 360°
2026-05-04 09:47 36.99307 6.71524 40137 ft 457 kts 360°
2026-05-04 09:49 37.24578 6.75433 40119 ft 457 kts 360°
2026-05-04 09:51 37.46680 6.78875 40071 ft 456 kts 360°
2026-05-04 09:51 37.52979 6.79860 40057 ft 456 kts 360°
2026-05-04 09:52 37.59289 6.80847 40070 ft 456 kts 360°
2026-05-04 09:52 37.65588 6.81835 40056 ft 456 kts 360°
2026-05-04 09:53 37.71851 6.82819 40066 ft 456 kts 360°
2026-05-04 09:53 37.78192 6.83817 40058 ft 456 kts 360°
2026-05-04 09:54 37.84457 6.84805 40063 ft 456 kts 360°
2026-05-04 09:54 37.90765 6.85801 40060 ft 457 kts 360°
2026-05-04 09:55 37.97070 6.86798 40058 ft 457 kts 360°
2026-05-04 09:55 38.03376 6.87797 40057 ft 457 kts 360°
2026-05-04 09:56 38.09693 6.88800 40062 ft 457 kts 360°
2026-05-04 09:56 38.15989 6.89801 40066 ft 457 kts 360°
2026-05-04 09:57 38.22294 6.90806 40057 ft 457 kts 360°
2026-05-04 09:57 38.28595 6.91811 40058 ft 457 kts 360°
2026-05-04 09:58 38.34904 6.92820 40068 ft 456 kts 360°
2026-05-04 09:58 38.41156 6.93822 40070 ft 456 kts 360°
2026-05-04 10:00 38.66364 6.97875 40064 ft 456 kts
2026-05-04 10:04 39.10379 7.04650 40067 ft 454 kts 358°
2026-05-04 10:04 39.16664 7.05344 40047 ft 454 kts 358°
2026-05-04 10:05 39.22959 7.06076 40049 ft 454 kts 358°
2026-05-04 10:05 39.29245 7.06830 40059 ft 454 kts 358°
2026-05-04 10:06 39.35534 7.07589 40056 ft 454 kts 358°
2026-05-04 10:06 39.41819 7.08349 40061 ft 454 kts 358°
2026-05-04 10:08 39.62793 7.10889 40064 ft 454 kts 358°
2026-05-04 10:08 39.69092 7.11654 40061 ft 454 kts 358°
2026-05-04 10:09 39.75387 7.12421 40067 ft 454 kts 358°
2026-05-04 10:09 39.81680 7.13189 40059 ft 454 kts 358°
2026-05-04 10:10 39.87967 7.13957 40067 ft 454 kts 358°
2026-05-04 10:10 39.94251 7.14727 40059 ft 453 kts 358°
2026-05-04 10:11 40.00534 7.15498 40076 ft 453 kts 358°
2026-05-04 10:11 40.06821 7.16270 40077 ft 454 kts 358°
2026-05-04 10:12 40.13120 7.17044 40070 ft 455 kts 358°
2026-05-04 10:12 40.19427 7.17823 40077 ft 455 kts 358°
2026-05-04 10:13 40.25736 7.18662 40077 ft 456 kts 359°
2026-05-04 10:13 40.32049 7.19538 40071 ft 456 kts 359°
2026-05-04 10:14 40.38354 7.20408 40075 ft 456 kts 359°
2026-05-04 10:16 40.63603 7.23864 40076 ft 457 kts 359°
2026-05-04 10:16 40.69924 7.24734 40076 ft 457 kts 359°
2026-05-04 10:17 40.76246 7.25605 40074 ft 457 kts 359°
2026-05-04 10:19 41.01480 7.29098 40071 ft 457 kts 359°
2026-05-04 10:19 41.07804 7.29977 40076 ft 457 kts 359°
2026-05-04 10:20 41.14142 7.30860 40077 ft 457 kts 359°
2026-05-04 10:20 41.20470 7.31744 40075 ft 457 kts 359°
2026-05-04 10:21 41.26804 7.32630 40065 ft 457 kts 359°
2026-05-04 10:21 41.33131 7.33517 40075 ft 458 kts 359°
2026-05-04 10:22 41.42647 7.34854 40076 ft 458 kts 359°
2026-05-04 10:23 41.48992 7.35748 40077 ft 458 kts 359°
2026-05-04 10:25 41.74369 7.39340 40076 ft 458 kts 359°
2026-05-04 10:25 41.80680 7.40238 40077 ft 458 kts 359°
2026-05-04 10:26 41.87065 7.41148 40076 ft 458 kts 359°
2026-05-04 10:26 41.93350 7.42047 40063 ft 458 kts 359°
2026-05-04 10:27 41.99695 7.42955 40080 ft 458 kts 359°
2026-05-04 10:27 42.06027 7.43862 40082 ft 458 kts 359°
2026-05-04 10:28 42.12379 7.44773 40083 ft 459 kts 359°
2026-05-04 10:28 42.18733 7.45689 40081 ft 459 kts 359°
2026-05-04 10:29 42.25093 7.46607 40082 ft 459 kts 359°
2026-05-04 10:29 42.31444 7.47525 40081 ft 459 kts 359°
2026-05-04 10:30 42.37807 7.48447 40081 ft 460 kts 359°
2026-05-04 10:30 42.44170 7.49370 40082 ft 460 kts 360°
2026-05-04 10:31 42.50542 7.50297 40082 ft 460 kts 360°
2026-05-04 10:32 42.72861 7.53558 40101 ft 462 kts
2026-05-04 10:33 42.79246 7.54496 40101 ft 462 kts
2026-05-04 10:33 42.85641 7.55437 40101 ft 462 kts
2026-05-04 10:34 42.91997 7.56374 40101 ft 463 kts
2026-05-04 10:34 42.98395 7.57320 40110 ft 463 kts
2026-05-04 10:35 43.04798 7.58269 40110 ft 463 kts
2026-05-04 10:35 43.11213 7.59221 40110 ft 464 kts
2026-05-04 10:36 43.17621 7.60527 40107 ft 466 kts
2026-05-04 10:36 43.24020 7.62101 40110 ft 467 kts
2026-05-04 10:37 43.30416 7.63639 40110 ft 466 kts
2026-05-04 10:37 43.36814 7.65121 40110 ft 466 kts
2026-05-04 10:39 43.59224 7.70262 40115 ft 466 kts
2026-05-04 10:40 43.65626 7.71740 40119 ft 466 kts
2026-05-04 10:40 43.72020 7.73220 40127 ft 466 kts
2026-05-04 10:41 43.78408 7.74815 40131 ft 469 kts 11°
2026-05-04 10:41 43.84423 7.78396 40118 ft 477 kts 31°
2026-05-04 10:42 43.89815 7.83803 40117 ft 480 kts 34°